Regional Weather Roundup
Issued by NWS Glasgow, MT

Home | Current Version | Previous Version | Text Only | Print | Product List | Glossary On
Versions: 1 2 3 4 5 6 7 8 9 10 11 12 13 14 15 16 17 18 19 20 21 22 23 24 25 26 27 28 29 30 31 32 33 34 35 36 37 38 39 40 41 42 43 44 45 46 47 48 49 50
000
ASUS45 KGGW 241315
RWRGGW
HOURLY WEATHER ROUNDUP FOR NORTHEAST MONTANA
NATIONAL WEATHER SERVICE GLASGOW MONTANA
600 AM MST MON NOV 24 2014

NOTE: "FAIR" INDICATES FEW OR NO CLOUDS BELOW 12,000 FEET WITH NO
SIGNIFICANT WEATHER AND/OR OBSTRUCTIONS TO VISISBILITY.

NORTHEAST MONTANA


CITY           SKY/WX    TMP DP  RH WIND       PRES   REMARKS
GLASGOW        FLURRIES  21  16  81 N5        29.88R
PLENTYWOOD       N/A     15  14  95 NW3         N/A
WOLF POINT     PTCLDY    14  10  84 CALM      29.90R
JORDAN           N/A     32  26  78 NW14      29.83R
WINNETT          N/A     36  21  54 W18G35      N/A
SIDNEY         CLOUDY    16   9  73 CALM      29.90R
GLENDIVE       PTCLDY     9   1  72 NE6       29.85R
MALTA            N/A     21  21 100 NW2         N/A

FORT PECK REPORTS


CITY           SKY/WX    TMP DP  RH WIND       PRES   REMARKS
FORT PECK        N/A     20  18  92 NE10        N/A
THE PINES        N/A     28  25  88 N2          N/A

SOUTHEAST MONTANA


CITY           SKY/WX    TMP DP  RH WIND       PRES   REMARKS
BILLINGS       CLOUDY    36  23  59 NW17G25   29.94R
MILES CITY     CLOUDY    33  31  92 W12       29.81R
BAKER          PTCLDY    13  10  88 CALM      29.82R
LIVINGSTON     CLOUDY    33  20  58 W15       30.01R

CENTRAL MONTANA


CITY           SKY/WX    TMP DP  RH WIND       PRES   REMARKS
HAVRE          MOCLDY    29  22  75 W12       29.94R
LEWISTOWN      CLOUDY    35  20  54 W13       29.94R
GREAT FALLS    CLOUDY    34  21  59 W17       29.99R
CUT BANK       PTCLDY    30  19  63 W15       29.97R
HELENA         PTCLDY    32  20  61 VRB3      30.07R
BUTTE          CLOUDY    26  19  74 NW7       30.10R
BOZEMAN        CLOUDY    32  18  56 W16       30.06R

WESTERN MONTANA


CITY           SKY/WX    TMP DP  RH WIND       PRES   REMARKS
MISSOULA       PTCLDY    30  26  85 N7        30.20R
KALISPELL      NOT AVBL

NORTH DAKOTA


CITY           SKY/WX    TMP DP  RH WIND       PRES   REMARKS
WILLISTON      CLOUDY     7   3  84 CALM      29.90R
DICKINSON      CLEAR     10   6  84 NW10      29.79R WCI  -4
MINOT          CLEAR      6   0  76 W10       29.85R WCI  -9
BISMARCK       PTCLDY    12   7  80 NW12      29.83R WCI  -2

SOUTHERN SASKATCHEWAN


CITY           SKY/WX    TMP DP  RH WIND       PRES   REMARKS
REGINA         FLURRIES  12  10  92 W7        29.90R
MOOSE JAW      CLOUDY    12  10  92 SW2       29.90R
ESTEVAN        CLEAR      1  -4  78 NW9       29.88R
SWIFT CURRENT  MOCLDY    18  14  86 SW8       29.84R



USA.gov is the U.S. government's official web portal to all federal, state and local government web resources and services.